Weather History for Russell, KS

Change the Weather History Date:

Wednesday, November 21, 2012

  Actual Average Record
Temperature  
Mean Temperature 58 °F -  
Max Temperature 75 °F 52 °F 75 °F (2012)
Min Temperature 42 °F 27 °F 8 °F (1964)
Degree Days  
Heating Degree Days 6    
Growing Degree Days 8 (Base 50)    
Moisture  
Dew Point 38 °F    
Average Humidity 51    
Maximum Humidity 89    
Minimum Humidity 22    
Precipitation  
Precipitation 0.00 in - - ()
Sea Level Pressure  
Sea Level Pressure 29.98 in    
Wind  
Wind Speed 17 mph (South)    
Max Wind Speed 36 mph    
Max Gust Speed 45 mph    
Visibility 10 miles    
Events      
Averages and records for this station are not official NWS values.
T = Trace of Precipitation, MM = Missing Value Source: NWS Daily Summary

Daily Weather History Graph

Daily Weather History Graph

Search for Another Location

Airport:

Trip Planner

Search our weather history database for the weather conditions in past years. The results will help you decide how hot, cold, wet, or windy it might be!

Date:

Astronomy

Nov. 21, 2012 Rise Set
Actual Time 7:25 AM CST 5:17 PM CST
Civil Twilight 6:56 AM CST 5:46 PM CST
Nautical Twilight 6:23 AM CST 6:18 PM CST
Astronomical Twilight 5:51 AM CST 6:50 PM CST
Moon 1:31 PM CST 12:49 AM CST
Length of Visible Light 10h 50m
Length of Day
9h 52m
First Quarter, 62% of the Moon is Illuminated
Nov 21
First Quarter
Nov 28
Full
Dec 6
Last Quarter
Dec 13
New
Dec 19
First Quarter

Hourly Weather History & Observations

Time (CST) Temp. Windchill Dew Point Humidity Pressure Visibility Wind Dir Wind Speed Gust Speed Precip Events Conditions
12:53 AM 48.9 °F - 35.1 °F 59% 30.13 in 10.0 mi South 12.7 mph - N/A   Clear
1:53 AM 46.9 °F - 35.1 °F 63% 30.12 in 10.0 mi South 10.4 mph - N/A   Clear
2:53 AM 48.9 °F - 37.9 °F 66% 30.11 in 10.0 mi SSW 13.8 mph - N/A   Clear
3:53 AM 46.9 °F - 39.0 °F 74% 30.11 in 10.0 mi South 13.8 mph - N/A   Clear
4:53 AM 43.0 °F 36.8 °F 37.9 °F 82% 30.11 in 10.0 mi South 11.5 mph - N/A   Clear
6:53 AM 42.1 °F 36.1 °F 39.0 °F 89% 30.11 in 9.0 mi South 10.4 mph - N/A   Clear
7:53 AM 44.1 °F 37.7 °F 41.0 °F 89% 30.11 in 7.0 mi South 12.7 mph - N/A   Clear
8:53 AM 51.1 °F - 45.0 °F 80% 30.10 in 10.0 mi South 16.1 mph - N/A   Clear
9:53 AM 59.0 °F - 46.9 °F 64% 30.09 in 10.0 mi South 19.6 mph 25.3 mph N/A   Clear
10:53 AM 66.0 °F - 45.0 °F 47% 30.06 in 10.0 mi SSW 24.2 mph 33.4 mph N/A   Clear
11:53 AM 69.1 °F - 42.1 °F 38% 30.02 in 10.0 mi South 27.6 mph 34.5 mph N/A   Clear
1:53 PM 73.9 °F - 34.0 °F 23% 29.92 in 10.0 mi South 35.7 mph 44.9 mph N/A   Clear
2:53 PM 75.0 °F - 33.1 °F 22% 29.87 in 10.0 mi South 33.4 mph 44.9 mph N/A   Clear
3:53 PM 73.9 °F - 33.1 °F 22% 29.87 in 10.0 mi South 27.6 mph 40.3 mph N/A   Clear
4:53 PM 71.1 °F - 35.1 °F 27% 29.87 in 10.0 mi South 24.2 mph 29.9 mph N/A   Clear
5:53 PM 66.0 °F - 34.0 °F 30% 29.88 in 10.0 mi South 20.7 mph - N/A   Clear
6:53 PM 64.0 °F - 37.0 °F 37% 29.87 in 10.0 mi South 19.6 mph - N/A   Clear
7:53 PM 63.0 °F - 39.0 °F 41% 29.86 in 10.0 mi South 18.4 mph - N/A   Clear
8:53 PM 63.0 °F - 37.9 °F 40% 29.85 in 10.0 mi South 19.6 mph 26.5 mph N/A   Clear
9:53 PM 62.1 °F - 36.0 °F 38% 29.83 in 10.0 mi South 18.4 mph 29.9 mph N/A   Clear
10:53 PM 61.0 °F - 39.9 °F 46% 29.81 in 10.0 mi South 23.0 mph 29.9 mph N/A   Clear
11:53 PM 60.1 °F - 41.0 °F 49% 29.78 in 10.0 mi South 21.9 mph 28.8 mph N/A   Clear